Regional Weather Roundup
Issued by NWS Cleveland, OH

Home | Current Version | Previous Version | Graphics & Text | Print | Product List | Glossary On
Versions: 1 2 3 4 5 6 7 8 9 10 11 12 13 14 15 16 17 18 19 20 21 22 23 24 25 26 27 28 29 30 31 32 33 34 35 36 37 38 39 40 41 42 43 44 45 46 47 48 49 50
000
ASUS41 KCLE 231402
RWRCLE
OHIO REGIONAL WEATHER ROUNDUP
NATIONAL WEATHER SERVICE CLEVELAND, OH
900 AM EST THU NOV 23 2017

NOTE: "FAIR" INDICATES FEW OR NO CLOUDS BELOW 12,000 FEET WITH NO
SIGNIFICANT WEATHER AND/OR OBSTRUCTIONS TO VISIBILITY.

OHZ001>008-015>018-024>027-034-035-043-044-231500-
   NORTHWEST OHIO

CITY           SKY/WX    TMP DP  RH WIND       PRES   REMARKS
DEFIANCE       CLOUDY    30  24  78 SW7       30.13S WCI  23
FINDLAY        CLOUDY    30  23  75 S7        30.13R WCI  23
TOLEDO EXPRESS CLOUDY    31  26  82 S8        30.12F WCI  23
TOLEDO EXEC    CLOUDY    32  25  75 SW10      30.14S WCI  24
LIMA           CLOUDY    30  25  81 S7        30.13R WCI  23
$$

OHZ009>014-019>023-028>033-038-089-231500-
   NORTHEAST OHIO

CITY           SKY/WX    TMP DP  RH WIND       PRES   REMARKS
CLE-HOPKINS    CLOUDY    31  22  69 SW8       30.18R WCI  23
CLE-LAKEFRONT  CLOUDY    32  21  64 SW8       30.16R WCI  25
CUY CO. ARPT   MOSUNNY   32  23  69 CALM      30.15R
LORAIN-ELYRIA  CLOUDY    29  19  66 SW7       30.16R WCI  22
ASHTABULA      PTSUNNY   30  20  66 SW8       30.15R WCI  22
AKRON-CANTON   CLOUDY    29  20  69 SW6       30.14R WCI  23
WOOSTER        MOSUNNY   28  22  78 SW5       30.14S WCI  23
MANSFIELD      CLOUDY    29  22  75 SW8       30.13R WCI  21
YOUNGSTOWN     CLOUDY    29  21  72 SW3       30.13S
$$

OHZ042-051>053-060>062-070>072-077>081-231500-
  SOUTHWEST OHIO

CITY           SKY/WX    TMP DP  RH WIND       PRES   REMARKS
CINC-COVINGTON CLOUDY    30  27  88 S5        30.15S WCI  25
CINC-LUNKEN    MOSUNNY   28  27  96 CALM      30.20R FOG
HAMILTON       CLOUDY    30  28  92 CALM      30.18S
DAYTON         CLOUDY    30  26  85 S9        30.14S WCI  22
WRIGHT-PAT AFB CLOUDY    29  25  83 S3        30.15S
DAYTON GENERAL CLOUDY    29  24  82 S6        30.14S WCI  23
WILMINGTON     CLOUDY    29  25  85 S5        30.15R WCI  24
$$

OHZ036-037-039>041-045>050-054>059-063>069-073>076-082>088-231500-
  CENTRAL AND SOUTHEAST OHIO

CITY           SKY/WX    TMP DP  RH WIND       PRES   REMARKS
COLUMBUS       CLOUDY    28  23  81 S3        30.16S
OSU AIRPORT    CLOUDY    28  24  85 S6        30.15S WCI  22
BOLTON FIELD   PTSUNNY   27  25  93 S5        30.16S WCI  21
RICKENBACK AFB CLOUDY    26  24  93 CALM      30.17S
NEWARK         CLOUDY    28  24  85 CALM      30.16S
MARION         CLOUDY    29  23  78 S7        30.15R WCI  22
LANCASTER      CLOUDY    26  24  92 CALM      30.16F
ZANESVILLE     CLOUDY    26  22  84 CALM      30.16S
NEW PHILLY     NOT AVBL
$$



USA.gov is the U.S. government's official web portal to all federal, state and local government web resources and services.